Weather History for YBPN - January, 2014

Change the Weather History Date:

Friday, January 24, 2014

  Actual Average Record
Temperature  
Mean Temperature 82 °F -  
Max Temperature 89 °F - - ()
Min Temperature 75 °F - - ()
Cooling Degree Days 17    
Growing Degree Days 32 (Base 50)    
Moisture  
Dew Point 73 °F    
Average Humidity 75    
Maximum Humidity 91    
Minimum Humidity 48    
Precipitation  
Precipitation 0.01 in - - ()
Sea Level Pressure  
Sea Level Pressure 29.81 in    
Wind  
Wind Speed 9 mph ()    
Max Wind Speed 18 mph    
Max Gust Speed -    
Visibility 6.5 miles    
Events      
T = Trace of Precipitation, MM = Missing Value Source: Averaged Metar Reports

Daily Weather History Graph

Daily Weather History Graph

Search for Another Location

Airport or City:

Trip Planner

Search our weather history database for the weather conditions in past years. The results will help you decide how hot, cold, wet, or windy it might be!

Date:

Astronomy

Jan. 24, 2014 Rise Set
Actual Time 5:43 AM AEST 6:51 PM AEST
Civil Twilight 5:19 AM AEST 7:15 PM AEST
Nautical Twilight 4:51 AM AEST 7:43 PM AEST
Astronomical Twilight 4:22 AM AEST 8:12 PM AEST
Moon 11:56 PM AEST (1/24) 12:11 PM AEST (1/24)
Length of Visible Light 13h 55m
Length of Day
13h 07m
Waning Gibbous, 51% of the Moon is Illuminated
Jan 24
Waning Gibbous
Jan 24
Last Quarter
Jan 31
New
Feb 7
First Quarter
Feb 15
Full

Hourly Weather History & Observations

Time (AEST) Temp. Heat Index Dew Point Humidity Pressure Visibility Wind Dir Wind Speed Gust Speed Precip Events Conditions
12:00 AM 78 °F - 73 °F 82% 29.87 in - ESE 9.2 mph - -  
12:00 AM 78.8 °F - 73.4 °F 83% 29.86 in 6.2 mi ESE 9.2 mph - N/A   Unknown
1:00 AM 78.8 °F - 73.4 °F 83% 29.83 in 6.2 mi ESE 8.1 mph - N/A   Scattered Clouds
2:00 AM 78.8 °F - 75.2 °F 89% 29.83 in 6.2 mi SE 10.4 mph - N/A   Overcast
3:00 AM 77 °F - 74 °F 87% 29.81 in - South 6.9 mph - -  
3:00 AM 77.0 °F - 73.4 °F 89% 29.80 in 6.2 mi South 6.9 mph - N/A   Mostly Cloudy
4:00 AM 77.0 °F - 73.4 °F 89% 29.80 in 6.2 mi South 6.9 mph - N/A   Scattered Clouds
5:00 AM 77.0 °F - 73.4 °F 89% 29.80 in 6.2 mi South 6.9 mph - N/A   Mostly Cloudy
6:00 AM 76 °F - 74 °F 91% 29.83 in - South 5.8 mph - -   Overcast
6:00 AM 77.0 °F - 73.4 °F 89% 29.83 in 6.2 mi South 5.8 mph - N/A   Mostly Cloudy
7:00 AM 78.8 °F - 75.2 °F 89% 29.83 in 6.2 mi South 8.1 mph - N/A   Mostly Cloudy
8:00 AM 80.6 °F 85.4 °F 73.4 °F 79% 29.86 in 6.2 mi South 9.2 mph - N/A   Overcast
9:00 AM 85 °F - 76 °F 68% 29.86 in 11 mi SE 15.0 mph - -   Haze
9:00 AM 84.2 °F 92.3 °F 75.2 °F 74% 29.86 in 6.2 mi SE 15.0 mph - N/A   Mostly Cloudy
10:00 AM 86.0 °F 93.4 °F 73.4 °F 66% 29.83 in 6.2 mi ESE 17.3 mph - N/A   Mostly Cloudy
11:00 AM 86.0 °F 91.8 °F 71.6 °F 62% 29.83 in 6.2 mi ESE 16.1 mph - N/A   Unknown
12:00 PM 87 °F - 70 °F 48% 29.81 in - ESE 16.1 mph - -  
12:00 PM 87.8 °F 95.6 °F 73.4 °F 62% 29.80 in 6.2 mi ESE 16.1 mph - N/A   Unknown
1:00 PM 87.8 °F 93.8 °F 71.6 °F 58% 29.77 in 6.2 mi ESE 16.1 mph - N/A   Unknown
2:00 PM 89.6 °F 94.7 °F 69.8 °F 52% 29.77 in 6.2 mi ESE 15.0 mph - N/A   Unknown
3:00 PM 87 °F - 72 °F 52% 29.76 in 10 mi ESE 18.4 mph - -   Haze
3:00 PM 87.8 °F 93.8 °F 71.6 °F 58% 29.74 in 6.2 mi ESE 18.4 mph - N/A   Unknown
4:00 PM 86.0 °F 91.8 °F 71.6 °F 62% 29.74 in 6.2 mi ESE 15.0 mph - N/A   Unknown
5:00 PM 86.0 °F 91.8 °F 71.6 °F 62% 29.74 in 6.2 mi ESE 13.8 mph - N/A   Unknown
6:00 PM 83 °F - 72 °F 62% 29.78 in - East 12.7 mph - -  
6:00 PM 82.4 °F 87.2 °F 71.6 °F 70% 29.77 in 6.2 mi East 12.7 mph - N/A   Unknown
7:00 PM 80.6 °F 85.4 °F 73.4 °F 79% 29.80 in 6.2 mi ESE 9.2 mph - N/A   Unknown
8:00 PM 78.8 °F - 73.4 °F 83% 29.80 in 6.2 mi ESE 5.8 mph - N/A   Mostly Cloudy
9:00 PM 77 °F - 73 °F 83% 29.83 in - SE 4.6 mph - -  
9:00 PM 77.0 °F - 73.4 °F 89% 29.83 in 6.2 mi SE 3.5 mph - N/A   Unknown
10:00 PM 77.0 °F - 73.4 °F 89% 29.83 in 6.2 mi SSW 5.8 mph - N/A   Mostly Cloudy
11:00 PM 77.0 °F - 73.4 °F 89% 29.83 in 6.2 mi South 4.6 mph - N/A   Mostly Cloudy